Schneifelwetter: Wetterstation Hallschlag, 537 m . NN
Wetterdaten: Mittwoch, 22.06.2011
Datum Zeit Temp. A. Feuchte A. Luftdruck Regen Wind Richtung Richtung Sonnenschein Helligkeit T Regen Taupunkt Windchill
22.06.2011 00:11 13,8 C 92 % 1014 hPa 0,0 l/m 18,3 km/h (3 Bft) SW45 225 0 min 0 lux 0,00 min 12,5 C 8,7 C
22.06.2011 00:26 13,9 C 93 % 1014 hPa 0,0 l/m 17,3 km/h (3 Bft) SW67.5 220 0 min 0 lux 0,00 min 12,8 C 9,1 C
22.06.2011 00:41 13,7 C 92 % 1014 hPa 0,0 l/m 10,6 km/h (2 Bft) W-SW22.5 245 0 min 0 lux 0,00 min 12,4 C 11,4 C
22.06.2011 00:56 13,4 C 92 % 1014 hPa 0,0 l/m 4,0 km/h (1 Bft) W-SW 245 0 min 0 lux 0,00 min 12,1 C 13,4 C
22.06.2011 01:16 12,9 C 92 % 1014 hPa 0,0 l/m 7,2 km/h (2 Bft) W-SW 250 0 min 0 lux 0,00 min 11,6 C 12,4 C
22.06.2011 01:31 13,0 C 94 % 1014 hPa 0,0 l/m 17,0 km/h (3 Bft) W-SW45 245 0 min 0 lux 0,00 min 12,1 C 8,1 C
22.06.2011 01:46 13,1 C 94 % 1014 hPa 0,0 l/m 11,0 km/h (2 Bft) SW45 230 0 min 0 lux 0,00 min 12,2 C 10,5 C
22.06.2011 02:01 13,2 C 95 % 1014 hPa 0,0 l/m 14,3 km/h (3 Bft) W-SW45 250 0 min 0 lux 0,00 min 12,4 C 9,3 C
22.06.2011 02:16 13,2 C 95 % 1014 hPa 0,0 l/m 11,1 km/h (2 Bft) W-SW22.5 250 0 min 0 lux 0,00 min 12,4 C 10,6 C
22.06.2011 02:31 13,3 C 95 % 1014 hPa 0,0 l/m 7,0 km/h (2 Bft) SW22.5 235 0 min 0 lux 0,00 min 12,5 C 12,9 C
22.06.2011 02:46 13,4 C 95 % 1014 hPa 0,0 l/m 0,0 km/h (0 Bft) S-SW 210 0 min 0 lux 0,00 min 12,6 C 13,4 C
22.06.2011 03:01 13,3 C 95 % 1013 hPa 0,0 l/m 0,0 km/h (0 Bft) W 260 0 min 0 lux 0,00 min 12,5 C 13,3 C
22.06.2011 03:16 13,4 C 96 % 1013 hPa 0,0 l/m 0,0 km/h (0 Bft) S-SW 205 0 min 0 lux 0,00 min 12,8 C 13,4 C
22.06.2011 03:31 13,6 C 96 % 1013 hPa 0,0 l/m 0,0 km/h (0 Bft) S-SW 205 0 min 0 lux 0,00 min 13,0 C 13,6 C
22.06.2011 03:46 13,7 C 96 % 1013 hPa 0,0 l/m 0,0 km/h (0 Bft) S-SW 205 0 min 0 lux 0,00 min 13,1 C 13,7 C
22.06.2011 04:01 13,8 C 96 % 1013 hPa 0,0 l/m 0,0 km/h (0 Bft) S-SW 205 0 min 0 lux 0,00 min 13,2 C 13,8 C
22.06.2011 04:16 14,0 C 96 % 1013 hPa 0,0 l/m 5,3 km/h (1 Bft) W-SW22.5 240 0 min 0 lux 0,00 min 13,4 C 14,0 C
22.06.2011 04:31 14,2 C 96 % 1013 hPa 0,0 l/m 9,1 km/h (2 Bft) S-SW45 195 0 min 0 lux 0,00 min 13,6 C 12,7 C
22.06.2011 04:46 14,4 C 96 % 1013 hPa 0,0 l/m 12,8 km/h (3 Bft) S-SW22.5 205 0 min 0 lux 0,00 min 13,8 C 11,3 C
22.06.2011 05:01 14,4 C 96 % 1013 hPa 0,0 l/m 10,3 km/h (2 Bft) SW45 225 0 min 0 lux 0,00 min 13,8 C 12,3 C
22.06.2011 05:16 14,4 C 96 % 1012 hPa 0,0 l/m 11,6 km/h (2 Bft) S-SW45 210 0 min 82 lux 0,00 min 13,8 C 11,7 C
22.06.2011 05:31 14,4 C 96 % 1012 hPa 0,0 l/m 20,3 km/h (4 Bft) SW45 220 0 min 248 lux 0,00 min 13,8 C 8,9 C
22.06.2011 05:46 14,4 C 96 % 1012 hPa 0,0 l/m 15,1 km/h (3 Bft) SW45 215 0 min 771 lux 0,00 min 13,8 C 10,4 C
22.06.2011 06:01 14,5 C 96 % 1012 hPa 0,3 l/m 16,9 km/h (3 Bft) SW45 225 0 min 1,05 klux 15,00 min 13,9 C 10,0 C
22.06.2011 06:16 14,7 C 96 % 1012 hPa 0,0 l/m 21,7 km/h (4 Bft) SW45 215 0 min 2,37 klux 0,00 min 14,1 C 8,9 C
22.06.2011 06:31 14,7 C 96 % 1012 hPa 0,0 l/m 17,0 km/h (3 Bft) SW45 215 0 min 1,64 klux 0,00 min 14,1 C 10,2 C
22.06.2011 06:46 15,0 C 95 % 1012 hPa 0,0 l/m 17,0 km/h (3 Bft) S-SW45 210 0 min 2,88 klux 0,00 min 14,2 C 10,6 C
22.06.2011 07:01 15,0 C 95 % 1012 hPa 0,3 l/m 18,3 km/h (3 Bft) SW45 220 0 min 4,58 klux 15,00 min 14,2 C 10,2 C
22.06.2011 07:16 15,0 C 95 % 1012 hPa 0,0 l/m 20,8 km/h (4 Bft) S-SW22.5 205 0 min 8,06 klux 0,00 min 14,2 C 9,5 C
22.06.2011 07:31 15,4 C 95 % 1012 hPa 0,0 l/m 17,8 km/h (3 Bft) SW45 215 0 min 9,8 klux 0,00 min 14,6 C 10,8 C
22.06.2011 07:46 15,4 C 95 % 1012 hPa 0,0 l/m 23,0 km/h (4 Bft) S-SW22.5 205 0 min 7,65 klux 0,00 min 14,6 C 9,6 C
22.06.2011 08:01 15,4 C 95 % 1012 hPa 0,0 l/m 22,6 km/h (4 Bft) SW45 220 0 min 9,3 klux 0,00 min 14,6 C 9,7 C
22.06.2011 08:17 15,4 C 94 % 1012 hPa 0,0 l/m 28,8 km/h (4 Bft) S-SW45 205 0 min 7,30 klux 0,00 min 14,4 C 8,4 C
22.06.2011 08:31 15,9 C 93 % 1012 hPa 0,0 l/m 21,4 km/h (4 Bft) S-SW45 210 0 min 25,9 klux 0,00 min 14,8 C 10,6 C
22.06.2011 08:46 16,5 C 92 % 1012 hPa 0,0 l/m 13,7 km/h (3 Bft) S-SW22.5 195 0 min 21,9 klux 0,00 min 15,2 C 13,4 C
22.06.2011 09:01 16,4 C 90 % 1012 hPa 0,0 l/m 25,0 km/h (4 Bft) S-SW45 210 0 min 17,9 klux 0,00 min 14,8 C 10,5 C
22.06.2011 09:16 16,2 C 91 % 1012 hPa 0,0 l/m 23,7 km/h (4 Bft) SW45 230 0 min 13,9 klux 0,00 min 14,7 C 10,5 C
22.06.2011 09:31 15,9 C 91 % 1012 hPa 0,0 l/m 21,5 km/h (4 Bft) SW45 225 0 min 7,54 klux 0,00 min 14,4 C 10,6 C
22.06.2011 09:46 16,8 C 91 % 1012 hPa 0,0 l/m 20,3 km/h (4 Bft) W-SW45 240 0 min 37,5 klux 0,00 min 15,3 C 12,0 C
22.06.2011 10:02 17,5 C 90 % 1012 hPa 0,0 l/m 19,7 km/h (3 Bft) S-SW45 205 0 min 54,8 klux 0,00 min 15,8 C 13,0 C
22.06.2011 10:16 17,8 C 87 % 1012 hPa 0,0 l/m 24,3 km/h (4 Bft) S-SW45 205 0 min 33,1 klux 0,00 min 15,6 C 12,5 C
22.06.2011 10:31 18,2 C 86 % 1011 hPa 0,0 l/m 22,3 km/h (4 Bft) W-SW45 240 0 min 37,3 klux 0,00 min 15,8 C 13,4 C
22.06.2011 10:46 18,4 C 84 % 1011 hPa 0,0 l/m 18,6 km/h (3 Bft) S-SW45 200 0 min 29,1 klux 0,00 min 15,6 C 14,4 C
22.06.2011 11:01 18,7 C 85 % 1010 hPa 0,0 l/m 17,9 km/h (3 Bft) S45 185 0 min 29,5 klux 0,00 min 16,1 C 15,0 C
22.06.2011 11:16 18,3 C 84 % 1010 hPa 0,0 l/m 22,7 km/h (4 Bft) S-SW45 205 0 min 24,4 klux 0,00 min 15,5 C 13,5 C
22.06.2011 11:32 17,7 C 86 % 1011 hPa 0,0 l/m 17,4 km/h (3 Bft) S-SW45 210 0 min 26,5 klux 0,00 min 15,3 C 13,8 C
22.06.2011 11:47 17,0 C 88 % 1011 hPa 0,0 l/m 17,4 km/h (3 Bft) SW67.5 215 0 min 8,89 klux 0,00 min 15,0 C 13,0 C
22.06.2011 12:01 16,6 C 89 % 1010 hPa 0,0 l/m 17,6 km/h (3 Bft) W22.5 265 0 min 5,84 klux 0,00 min 14,8 C 12,4 C
22.06.2011 12:16 16,0 C 88 % 1010 hPa 0,0 l/m 36,0 km/h (5 Bft) W67.5 265 0 min 7,82 klux 0,00 min 14,0 C 8,3 C
22.06.2011 12:31 14,8 C 89 % 1011 hPa 0,0 l/m 32,1 km/h (5 Bft) W67.5 275 0 min 6,11 klux 0,00 min 13,0 C 7,1 C
22.06.2011 12:46 14,4 C 91 % 1011 hPa 0,0 l/m 29,1 km/h (5 Bft) W67.5 260 0 min 7,19 klux 0,00 min 12,9 C 7,0 C
22.06.2011 13:01 13,9 C 92 % 1011 hPa 0,0 l/m 26,1 km/h (4 Bft) W45 260 0 min 6,29 klux 0,00 min 12,6 C 6,9 C
22.06.2011 13:17 13,7 C 92 % 1010 hPa 0,0 l/m 16,5 km/h (3 Bft) SW45 230 0 min 5,78 klux 0,00 min 12,4 C 9,1 C
22.06.2011 13:31 13,6 C 93 % 1011 hPa 0,0 l/m 12,8 km/h (3 Bft) SW22.5 225 0 min 12,9 klux 0,00 min 12,5 C 10,3 C
22.06.2011 13:46 14,2 C 93 % 1011 hPa 0,0 l/m 11,0 km/h (2 Bft) S22.5 185 0 min 23,7 klux 0,00 min 13,1 C 11,8 C
22.06.2011 14:01 14,5 C 93 % 1011 hPa 0,0 l/m 9,8 km/h (2 Bft) SW22.5 235 0 min 13,5 klux 0,00 min 13,4 C 12,7 C
22.06.2011 14:16 14,5 C 93 % 1011 hPa 0,0 l/m 15,6 km/h (3 Bft) SW45 225 0 min 19,0 klux 0,00 min 13,4 C 10,4 C
22.06.2011 14:31 14,8 C 93 % 1011 hPa 0,0 l/m 22,5 km/h (4 Bft) W-SW45 255 0 min 27,6 klux 0,00 min 13,7 C 8,9 C
22.06.2011 14:46 15,2 C 91 % 1012 hPa 6,3 l/m 29,1 km/h (5 Bft) SW67.5 225 0 min 46,8 klux 15,00 min 13,7 C 8,1 C
22.06.2011 15:02 16,3 C 91 % 1011 hPa 0,0 l/m 27,5 km/h (4 Bft) W-SW45 255 16 min 64,4 klux 0,00 min 14,8 C 9,9 C
22.06.2011 15:16 16,8 C 88 % 1011 hPa 0,0 l/m 23,9 km/h (4 Bft) W-SW22.5 255 14 min 64,1 klux 0,00 min 14,8 C 11,3 C
22.06.2011 15:31 16,9 C 87 % 1010 hPa 0,0 l/m 13,7 km/h (3 Bft) SW22.5 225 0 min 44,0 klux 0,00 min 14,7 C 13,9 C
22.06.2011 15:46 16,6 C 86 % 1010 hPa 0,0 l/m 13,0 km/h (3 Bft) S-SW22.5 195 0 min 31,5 klux 0,00 min 14,2 C 13,8 C
22.06.2011 16:01 17,2 C 86 % 1010 hPa 0,0 l/m 26,1 km/h (4 Bft) W-SW45 250 15 min 100 klux 0,00 min 14,8 C 11,4 C
22.06.2011 16:16 17,5 C 83 % 1010 hPa 0,0 l/m 40,3 km/h (6 Bft) W-SW67.5 240 15 min 113 klux 0,00 min 14,6 C 10,0 C
22.06.2011 16:32 16,9 C 83 % 1011 hPa 0,0 l/m 34,8 km/h (5 Bft) W-SW45 255 16 min 72,6 klux 0,00 min 14,0 C 9,7 C
22.06.2011 16:46 16,8 C 81 % 1011 hPa 0,0 l/m 43,8 km/h (6 Bft) W67.5 260 14 min 96,2 klux 0,00 min 13,5 C 8,6 C
22.06.2011 17:01 16,6 C 79 % 1011 hPa 0,0 l/m 53,4 km/h (7 Bft) W-SW45 255 0 min 42,8 klux 0,00 min 12,9 C 7,6 C
22.06.2011 17:16 16,4 C 77 % 1011 hPa 0,0 l/m 46,6 km/h (6 Bft) W45 260 15 min 87,3 klux 0,00 min 12,4 C 7,8 C
22.06.2011 17:31 16,5 C 77 % 1011 hPa 0,0 l/m 48,1 km/h (6 Bft) W-SW67.5 250 15 min 82,8 klux 0,00 min 12,5 C 7,8 C
22.06.2011 17:46 15,9 C 77 % 1011 hPa 0,0 l/m 51,2 km/h (7 Bft) W22.5 260 0 min 47,9 klux 0,00 min 11,9 C 6,7 C
22.06.2011 18:01 15,3 C 78 % 1011 hPa 0,0 l/m 44,5 km/h (6 Bft) W45 260 0 min 47,5 klux 0,00 min 11,5 C 6,3 C
22.06.2011 18:17 15,2 C 75 % 1012 hPa 0,0 l/m 42,4 km/h (6 Bft) W-SW45 255 16 min 70,4 klux 0,00 min 10,8 C 6,3 C
22.06.2011 18:31 14,8 C 75 % 1012 hPa 0,0 l/m 40,7 km/h (6 Bft) W-SW45 255 0 min 24,4 klux 0,00 min 10,4 C 5,9 C
22.06.2011 18:46 14,5 C 77 % 1012 hPa 0,0 l/m 37,6 km/h (5 Bft) W-SW22.5 255 0 min 58,5 klux 0,00 min 10,5 C 5,9 C
22.06.2011 19:01 14,7 C 74 % 1012 hPa 0,0 l/m 33,3 km/h (5 Bft) W45 260 0 min 50,4 klux 0,00 min 10,1 C 6,7 C
22.06.2011 19:16 14,1 C 77 % 1012 hPa 0,0 l/m 33,8 km/h (5 Bft) W45 260 0 min 19,5 klux 0,00 min 10,1 C 5,8 C
22.06.2011 19:32 13,8 C 77 % 1013 hPa 0,0 l/m 30,9 km/h (5 Bft) W-SW45 250 0 min 10,8 klux 0,00 min 9,8 C 5,8 C
22.06.2011 19:46 13,7 C 78 % 1013 hPa 0,0 l/m 29,1 km/h (5 Bft) W-SW45 250 0 min 13,1 klux 0,00 min 9,9 C 6,0 C
22.06.2011 20:01 13,7 C 79 % 1013 hPa 0,0 l/m 19,2 km/h (3 Bft) W-SW45 245 0 min 17,5 klux 0,00 min 10,1 C 8,3 C
22.06.2011 20:16 13,4 C 79 % 1013 hPa 0,0 l/m 26,8 km/h (4 Bft) W-SW45 255 0 min 8,41 klux 0,00 min 9,8 C 6,1 C
22.06.2011 20:31 13,4 C 80 % 1013 hPa 0,0 l/m 21,0 km/h (4 Bft) W-SW67.5 240 0 min 25,7 klux 0,00 min 10,0 C 7,4 C
22.06.2011 20:46 12,9 C 81 % 1013 hPa 0,0 l/m 27,2 km/h (4 Bft) W-SW45 250 0 min 13,0 klux 0,00 min 9,7 C 5,3 C
22.06.2011 21:01 12,6 C 82 % 1013 hPa 0,0 l/m 26,6 km/h (4 Bft) W-SW22.5 250 0 min 5,10 klux 0,00 min 9,6 C 5,0 C
22.06.2011 21:16 12,2 C 84 % 1013 hPa 0,0 l/m 17,7 km/h (3 Bft) SW45 235 0 min 4,11 klux 0,00 min 9,6 C 6,8 C
22.06.2011 21:31 11,9 C 84 % 1014 hPa 0,0 l/m 24,3 km/h (4 Bft) W-SW45 250 0 min 2,76 klux 0,00 min 9,3 C 4,6 C
22.06.2011 21:46 11,6 C 85 % 1014 hPa 0,0 l/m 13,5 km/h (3 Bft) S-SW45 205 0 min 1,46 klux 0,00 min 9,2 C 7,7 C
22.06.2011 22:01 11,1 C 87 % 1014 hPa 0,0 l/m 13,2 km/h (3 Bft) SW22.5 215 0 min 675 lux 0,00 min 9,0 C 7,2 C
22.06.2011 22:17 10,8 C 88 % 1014 hPa 0,0 l/m 11,5 km/h (2 Bft) S22.5 190 0 min 211 lux 0,00 min 8,9 C 7,7 C
22.06.2011 22:31 10,8 C 88 % 1014 hPa 0,0 l/m 9,2 km/h (2 Bft) S-SW 205 0 min 29 lux 0,00 min 8,9 C 8,9 C
22.06.2011 22:46 10,5 C 89 % 1015 hPa 0,3 l/m 8,7 km/h (2 Bft) SW22.5 215 0 min 3 lux 15,00 min 8,8 C 8,9 C
22.06.2011 23:01 10,6 C 90 % 1015 hPa 0,0 l/m 9,2 km/h (2 Bft) SW22.5 230 0 min 0 lux 0,00 min 9,0 C 8,7 C
22.06.2011 23:16 10,8 C 91 % 1015 hPa 0,0 l/m 9,6 km/h (2 Bft) W-SW22.5 245 0 min 0 lux 0,00 min 9,4 C 8,7 C
22.06.2011 23:31 11,1 C 91 % 1015 hPa 0,0 l/m 13,8 km/h (3 Bft) S-SW45 205 0 min 0 lux 0,00 min 9,7 C 7,0 C
22.06.2011 23:47 11,4 C 91 % 1015 hPa 0,0 l/m 17,8 km/h (3 Bft) S-SW45 200 0 min 0 lux 0,00 min 10,0 C 5,8 C
_ Min-Zeit 22:46 19:01 11:01 - 02:46 - - - - - 22:46 21:31
Minimum _ 10,5 C 74 % 1010 hPa - 0,0 km/h (0 Bft) - - - - - 8,8 C 4,6 C
_ Max-Zeit 11:01 03:16 22:46 14:46 17:01 - - 15:02 16:16 06:01 11:01 11:01
Maximum _ 18,7 C 96 % 1015 hPa 6,3 l/m 53,4 km/h
W-SW (7 Bft)
- - 16 min 113 klux 15,00 min 16,1 C 15,0 C
Durchschnitt _ 14,6 C 89 % 1012 hPa #7,2 l/m 20,4 km/h (4 Bft) W-SW - #2:16 h 19,2 klux #1:00 h 12,8 C 9,9 C